Regional Weather Roundup
Issued by NWS Bismarck, ND

Home | Current Version | Previous Version | Text Only | Print | Product List | Glossary On
Versions: 1 2 3 4 5 6 7 8 9 10 11 12 13 14 15 16 17 18 19 20 21 22 23 24 25 26 27 28 29 30 31 32 33 34 35 36 37 38 39 40 41 42 43 44 45 46 47 48 49 50
000
ASUS43 KBIS 310110
RWRBIS

NWR BROADCAST TEXT
NATIONAL WEATHER SERVICE BISMARCK ND
800 PM CDT THU JUL 30 2015

NOTE: "FAIR" INDICATES FEW OR NO CLOUDS BELOW 12,000 FEET WITH NO
SIGNIFICANT WEATHER AND/OR OBSTRUCTIONS TO VISIBILITY.


CITY           SKY/WX    TMP DP  RH WIND       PRES   REMARKS
WILLISTON      SUNNY     82  42  24 N10       30.13F
MINOT          SUNNY     75  47  36 NW14      30.11S
MINOT AFB      SUNNY     79  46  31 NW15      30.10R
BISMARCK       SUNNY     81  46  29 N10       30.12F
DICKINSON      SUNNY     80  44  27 N7        30.15S
GARRISON         N/A     76  53  44 N8        30.12F
HETTINGER ARPT SUNNY     83  42  23 N8        30.17F
JAMESTOWN      SUNNY     77  51  40 NW14      30.07S
BEACH          FAIR      79  48  34 CALM      30.18S
CROSBY         FAIR      72  50  46 N6        30.14F
HARVEY         FAIR      73  50  43 NW13      30.10R
HAZEN          FAIR      79  46  31 N7        30.13S
LINTON         FAIR      77  54  44 N5        30.12S
MANDAN         FAIR      77  48  36 N7        30.13F
OAKES            N/A     77  59  53 W7        30.08R
STANLEY        FAIR      73  50  43 N8G15     30.15F
$$

CITY           SKY/WX    TMP DP  RH WIND       PRES   REMARKS
GRAND FORKS    PTCLDY    77  55  46 NW12      29.98R
GRAND FORKS AF CLEAR     75  53  45 NW13G22   30.00R
DEVILS LAKE    SUNNY     75  48  38 NW16      30.04S
FARGO          CLEAR     79  55  43 W10       30.01S
CAVALIER       FAIR      75  50  41 NW16G23   29.98R
GRAFTON        FAIR      75  50  41 NW21G29   29.98S
GWINNER        FAIR      81  57  44 NW9       30.07R
LANGDON        FAIR      72  50  46 NW18      30.04R
ROLLA          FAIR      68  48  49 NW12G21   30.08R
WALHALLA       FAIR      73  50  43 MISG      29.99R
$$

CITY           SKY/WX    TMP DP  RH WIND       PRES   REMARKS
ABERDEEN       CLEAR     82  54  37 N10       30.08R
MOBRIDGE       SUNNY     83  54  36 N7        30.09S
BUFFALO          N/A     86  41  20 N7        30.12S
RAPID CITY     SUNNY     83  48  29 CALM      30.20F
GLASGOW        SUNNY     84  41  21 NW12      30.13F
SIDNEY         SUNNY    N/A N/A N/A N6        30.12F
WOLF POINT     SUNNY     86  42  21 NW10      30.13F
GLENDIVE       SUNNY     82  43  24 NW13      30.16S
MILES CITY     SUNNY     88  40  18 NW14      30.14F
BAKER          SUNNY     84  42  22 NW13G20   30.18F
$$

CITY           SKY/WX    TMP DP  RH WIND       PRES   REMARKS
BILLINGS       SUNNY     88  35  15 E8        30.20F
GREAT FALLS    SUNNY     85  36  17 E7        30.18F
REGINA         MOSUNNY   75  54  46 NW9       30.11F
ESTEVAN        MOSUNNY   73  50  43 NW12G17   30.13F
$$



USA.gov is the U.S. government's official web portal to all federal, state and local government web resources and services.